TimeEDT,TemperatureF,Dew PointF,Humidity,Sea Level PressureIn,VisibilityMPH,Wind Direction,Wind SpeedMPH,Gust SpeedMPH,PrecipitationIn,Events,Conditions,WindDirDegrees,DateUTC
12:53 AM,78.1,72.0,81,29.80,10.0,WSW,3.5,-,N/A,,Partly Cloudy,250,2011-10-01 04:53:00
1:53 AM,78.1,72.0,81,29.79,10.0,West,5.8,-,N/A,,Partly Cloudy,260,2011-10-01 05:53:00
2:53 AM,77.0,72.0,84,29.78,10.0,West,5.8,-,N/A,,Clear,270,2011-10-01 06:53:00
3:53 AM,77.0,72.0,84,29.78,10.0,WNW,3.5,-,N/A,,Clear,300,2011-10-01 07:53:00
4:53 AM,75.9,72.0,87,29.78,10.0,WNW,4.6,-,N/A,,Clear,300,2011-10-01 08:53:00
5:53 AM,75.9,71.1,85,29.79,10.0,NW,6.9,-,N/A,,Clear,310,2011-10-01 09:53:00
6:53 AM,75.9,69.1,79,29.80,10.0,NW,5.8,-,N/A,,Clear,320,2011-10-01 10:53:00
7:53 AM,75.9,69.1,79,29.81,10.0,NW,6.9,-,N/A,,Partly Cloudy,310,2011-10-01 11:53:00
8:53 AM,79.0,70.0,74,29.83,10.0,NW,8.1,-,N/A,,Partly Cloudy,310,2011-10-01 12:53:00
9:53 AM,82.0,70.0,67,29.86,10.0,NW,6.9,-,N/A,,Partly Cloudy,310,2011-10-01 13:53:00
10:53 AM,84.9,70.0,61,29.86,10.0,WNW,6.9,-,N/A,,Clear,300,2011-10-01 14:53:00
11:53 AM,87.1,69.1,55,29.86,10.0,Variable,3.5,-,N/A,,Partly Cloudy,0,2011-10-01 15:53:00
12:53 PM,88.0,66.9,49,29.84,10.0,Variable,4.6,-,N/A,,Partly Cloudy,0,2011-10-01 16:53:00
1:53 PM,89.1,66.0,46,29.83,10.0,West,8.1,-,N/A,,Partly Cloudy,260,2011-10-01 17:53:00
2:53 PM,89.1,66.0,46,29.81,10.0,Variable,5.8,-,N/A,,Partly Cloudy,0,2011-10-01 18:53:00
3:53 PM,87.1,72.0,61,29.81,10.0,East,10.4,-,N/A,,Scattered Clouds,90,2011-10-01 19:53:00
4:53 PM,84.9,72.0,65,29.81,10.0,ENE,8.1,-,N/A,,Scattered Clouds,60,2011-10-01 20:53:00
5:53 PM,84.9,72.0,65,29.81,10.0,ENE,8.1,-,N/A,,Scattered Clouds,70,2011-10-01 21:53:00
6:53 PM,84.0,71.1,65,29.82,10.0,NNE,9.2,-,N/A,,Partly Cloudy,30,2011-10-01 22:53:00
7:53 PM,82.0,70.0,67,29.84,10.0,North,8.1,-,N/A,,Scattered Clouds,10,2011-10-01 23:53:00
8:53 PM,81.0,70.0,69,29.86,10.0,North,8.1,-,N/A,,Clear,10,2011-10-02 00:53:00
9:53 PM,80.6,69.8,70,29.88,10.0,North,5.8,-,N/A,,Partly Cloudy,10,2011-10-02 01:53:00
10:53 PM,80.1,70.0,71,29.89,10.0,North,8.1,-,N/A,,Partly Cloudy,10,2011-10-02 02:53:00
11:53 PM,78.1,69.1,74,29.89,10.0,NNW,8.1,-,N/A,,Partly Cloudy,340,2011-10-02 03:53:00